Location: Unspecified
(50.7693°N, 0.0000°E)
Time: 17:05:53
(UTC+00:00)

deb Explorer IX - Pass Details

Date: 21 June 2019
Orbit: 539 x 1112 km, 38.8° (Epoch: 17 July)

Event Time Altitude Azimuth Distance (km) Brightness Sun altitude
Rises 19:01:02 0° 264° (W) 3,906 ? 9.2°
Reaches altitude 10° 19:05:01 10° 245° (WSW) 2,891 ? 8.6°
Maximum altitude 19:09:01 16° 211° (SSW) 2,390 ? 8.1°
Drops below altitude 10° 19:12:48 10° 175° (S) 2,705 ? 7.5°
Sets 19:16:22 0° 155° (SSE) 3,534 ? 7.0°
